Terminal Aerodrome Forecast
Issued by NWS

Home | Current Version | Previous Version | Graphics & Text | Print | Product List | Glossary On
Versions: 1 2 3 4 5 6 7 8 9 10 11 12 13 14 15 16 17 18 19
814
FTUS43 KUNR 192232 AAA
TAFGCC
TAF AMD
KGCC 192232Z 1923/2018 24015G25KT P6SM SCT250
     FM200000 27010KT P6SM SCT250
     FM201200 29006KT 5SM -SN OVC010=

USA.gov is the U.S. government's official web portal to all federal, state and local government web resources and services.